Regional Weather Roundup
Issued by NWS

Home | Current Version | Previous Version | Text Only | Print | Product List | Glossary On
Versions: 1 2 3 4 5 6 7 8 9 10 11 12 13 14 15 16 17 18 19 20 21 22 23 24 25 26 27 28 29 30 31 32 33 34 35 36 37 38 39 40 41 42 43 44 45 46 47 48 49 50
000
ASUS43 KMPX 010710
RWRMN
WEATHER ROUNDUP FOR MINNESOTA
NATIONAL WEATHER SERVICE TWIN CITIES/CHANHASSEN MN
100 AM CST MON MAR 01 2021


NOTE: "FAIR" INDICATES FEW OR NO CLOUDS BELOW 12,000 FEET WITH NO
SIGNIFICANT WEATHER AND/OR OBSTRUCTIONS TO VISIBILITY. N/A MEANS
CURRENT SKY AND/OR WEATHER CONDITIONS ARE NOT AVAILABLE.

MNZ060>063-068>070-010800-
   Twin Cities Metro

CITY           SKY/WX    TMP DP  RH WIND       PRES   REMARKS
TWIN CITIES    CLOUDY    21  12  68 W9        30.10R WCI  11
ST PAUL        CLOUDY    22  11  62 W9        30.11R WCI  12
CRYSTAL        CLOUDY    21  12  68 W6        30.08S WCI  13
BLAINE         CLOUDY    21  12  68 NW8       30.09R WCI  12
LAKEVILLE      MOCLDY    19  14  79 W6        30.10R WCI  11
EDEN PRAIRIE   CLOUDY    21  13  71 W5        30.09R WCI  15
SOUTH ST PAUL  MOCLDY    22  12  64 NW7       30.10R WCI  14
$$
MNZ001>005-007-008-013>017-022>024-027-028-010800-
   Northwest Minnesota

CITY           SKY/WX    TMP DP  RH WIND       PRES   REMARKS
BEMIDJI        PTCLDY     6  -1  73 N7        30.12R WCI  -5
HALLOCK        CLEAR     -2  -9  71 CALM      30.28R
ROSEAU         CLEAR      1 -22  32 N9        30.22R WCI -14
WARROAD        CLEAR     -4 -15  59 NW6       30.20R WCI -16
THIEF RVR FALL CLEAR      3  -2  79 N12       30.21R WCI -13
CROOKSTON      CLEAR      5  -4  66 N10       30.24R WCI -10
FOSSTON        CLEAR      3  -2  78 N10       30.17R WCI -12
DETROIT LAKES  LGT SNOW   9   5  85 N13       30.14R HAZE    WCI  -7
MOORHEAD       LGT SNOW  12   5  73 N14G20    30.22R WCI  -3
PARK RAPIDS    FLURRIES  11   2  67 N13G22    30.09R WCI  -4
MAHNOMEN       PTSUNNY   10   1  66 N12       30.16R WCI  -5
$$
MNZ006-009>011-018-025>026-010800-
   North Central Minnesota

CITY           SKY/WX    TMP DP  RH WIND       PRES   REMARKS
BAUDETTE       CLEAR     -3 -20  44 N10G21    30.17R WCI -20
FLAG ISLAND    CLEAR     -6 -18  54 NW14      30.19R WCI -26
INTL FALLS     CLEAR      1 -13  51 NW15      30.11R WCI -18
WASKISH        CLEAR      3  -6  66 N8        30.14R WCI -10
BIG FORK       CLEAR      5  -2  72 NW3       30.14R
GRAND RAPIDS   MOCLDY     9   1  70 N15       30.10R WCI  -8
CRANE LAKE     CLEAR      3  -8  60 NW6       30.11R WCI  -8
ORR            CLEAR      3  -6  66 NW9       30.05R WCI -11
COOK           CLEAR      5  -4  66 NW8       30.06R WCI  -8
WALKER         CLOUDY     9   2  72 N7        30.11R WCI  -2
$$
MNZ012-019>021-037-010800-
   Northeast Minnesota

CITY           SKY/WX    TMP DP  RH WIND       PRES   REMARKS
DULUTH         CLOUDY    12   0  58 NW14      30.02R WCI  -3
ELY            CLEAR      3  -6  66 NW7       30.02R WCI  -9
HIBBING        PTCLDY     7  -2  66 NW16G29   30.05R WCI -11
EVELETH        PTCLDY     8  -2  64 NW16      30.05R WCI -10
DULUTH HARBOR  MOCLDY    16   3  57 NW9       30.10R WCI   4
TWO HARBORS    PTCLDY    10  -2  56 NW8G17    30.03R WCI  -1
SILVER BAY     PTCLDY     9  -4  56 CALM      30.02R
GRAND MARAIS     N/A     11  -3  53 W8        30.02R WCI  -1
G MARAIS ARPRT PTCLDY     3  -8  60 NW6G18    29.88R WCI  -8
$$
MNZ029>031-032-039>041-046>048-054>057-064-010800-
   West Central Minnesota

CITY           SKY/WX    TMP DP  RH WIND       PRES   REMARKS
FERGUS FALLS   LGT SNOW  12   9  85 N12       30.12R WCI  -2
WHEATON        LGT SNOW  16  12  86 N14G20    30.17R VSB 1   WCI   1
MORRIS         FLURRIES  18  10  73 N14       30.13R WCI   4
ALEXANDRIA     LGT SNOW  14  10  84 N9        30.10R FOG     WCI   2
ELBOW LAKE     LGT SNOW  14  11  91 NE8       30.13R VSB 1   WCI   2
WADENA         LGT SNOW  10   9  92 N9        30.11R WCI  -2
GLENWOOD       LGT SNOW  16  10  79 N9        30.09R WCI   4
APPLETON       CLOUDY    21  14  73 N12       30.11R WCI   9
BENSON         CLOUDY    19  12  73 NE13      30.11R WCI   7
ORTONVILLE     CLOUDY    19  16  86 N17       30.11R WCI   4
MADISON        PTCLDY    21  16  79 N10       30.11R WCI  10
WILLMAR        FAIR      19  16  86 CALM      30.11R
$$
MNZ033>034-036-042>043-049>051-058-059-010800-
   Central Minnesota

CITY           SKY/WX    TMP DP  RH WIND       PRES   REMARKS
ST CLOUD       LGT SNOW  17  12  80 NW7       30.10R WCI   8
SAUK CENTRE    LGT SNOW  16  10  80 N12       30.10R WCI   2
PAYNESVILLE    CLOUDY    19  14  79 N5        30.09S WCI  13
AITKIN         CLOUDY    12   5  73 NW7       30.08S WCI   2
PINE RIVER     LGT SNOW  14   9  79 N6        30.12R WCI   5
BRAINERD       LGT SNOW  14   7  73 N8        30.09R WCI   3
STAPLES        LGT SNOW  14  10  85 N7        30.11R WCI   4
LONG PRAIRIE   LGT SNOW  14  10  85 N8        30.10R WCI   3
LITTLE FALLS   LGT SNOW  16   9  73 NW5       30.11R WCI   9
CAMP RIPLEY    FLURRIES  14   8  76 N12       30.11R WCI   1
LITCHFIELD     MIX PCPN  19  16  86 CALM      30.08F
BUFFALO        CLOUDY    19  14  79 MISG      30.12R
MAPLE LAKE       N/A     21  14  75 NW5       30.10R WCI  14
HUTCHINSON     FLURRIES  22  17  82 NW3       30.09S
$$
MNZ037-044-045-052-053-010800-
   East Central Minnesota

CITY           SKY/WX    TMP DP  RH WIND       PRES   REMARKS
PRINCETON      LGT SNOW  19  14  79 NW6       30.09R WCI  11
MORA           CLOUDY    18   5  57 N5        30.10R WCI  11
CAMBRIDGE      LGT SNOW  19   9  63 N9        30.09R WCI   9
RUSH CITY      CLOUDY    18   7  61 N10       30.08R WCI   6
MOOSE LAKE     CLOUDY    14   3  62 CALM      30.06R
HINCKLEY       CLOUDY    18   5  57 CALM      30.08R
CLOQUET        MOCLDY    10   1  67 NW6       30.03R WCI   1
MCGREGOR       CLOUDY    14   5  67 NW10      30.08R WCI   1
$$
MNZ071>073-080-081-089-090-097-098-010800-
   Southwest Minnesota

CITY           SKY/WX    TMP DP  RH WIND       PRES   REMARKS
MONTEVIDEO     MOCLDY    18  12  79 NE3       30.08R
GRANITE FALLS  CLOUDY    21  17  84 CALM      30.08S
CANBY          CLOUDY    26  19  76 NW7       30.07R WCI  18
MARSHALL       CLOUDY    23  17  78 SW17      30.05F WCI   9
REDWOOD FALLS  CLOUDY    19  14  81 CALM      30.07F
OLIVIA         MOCLDY    19  18  93 CALM      30.08R
PIPESTONE        N/A     18  16  93 SW8       30.03F WCI   7
WINDOM         PTCLDY    21  18  86 CALM      30.06F
WORTHINGTON    PTCLDY    22  18  85 SW15      30.05F WCI   9
JACKSON        CLOUDY    23  19  86 SW5       30.08S WCI  17
TRACY          CLOUDY    25  17  71 SW13      30.04F WCI  14
SLAYTON        PTCLDY    21  16  82 SW12      30.04F WCI   9
$$
MNZ065>067-074>077-082>085-091>093-010800-
   South Central Minnesota

CITY           SKY/WX    TMP DP  RH WIND       PRES   REMARKS
MANKATO        MOCLDY    21  19  92 W3        30.10R
NEW ULM        CLOUDY    23  18  80 CALM      30.08F
ST JAMES       CLOUDY    21  18  86 S6        30.08F WCI  14
FAIRMONT       MOCLDY    21  17  84 W8        30.10F WCI  11
GLENCOE        CLOUDY    22  17  79 N5        30.09S WCI  16
FARIBAULT        N/A     19  18  93 CALM      30.09S
OWATONNA       MOCLDY    19  16  86 W6        30.08S WCI  11
WASECA         CLOUDY    21  18  86 W6        30.10S WCI  14
ALBERT LEA     PTCLDY    18  16  93 W5        30.09S WCI  11
$$
MNZ078>079-086>088-094>096-010800-
   Southeast Minnesota

CITY           SKY/WX    TMP DP  RH WIND       PRES   REMARKS
ROCHESTER      PTCLDY    18  12  77 W10       30.06S WCI   6
RED WING       MOCLDY    21  14  73 NW8       30.09R WCI  12
STANTON        CLOUDY    20  16  83 CALM      30.09R
DODGE CENTER   PTCLDY    18  14  86 W9        30.06S WCI   6
WINONA         PTCLDY    23  14  68 NW7       30.10S WCI  15
PRESTON        PTCLDY    17  12  82 NW6       30.07S WCI   8
$$
ABBREVIATIONS USED IN REMARKS
   TC - TEMPERATURES IN CELSIUS
  WCI - WIND CHILL INDEX
   HX - HEAT INDEX
  VSB - VISIBILITY
$$



USA.gov is the U.S. government's official web portal to all federal, state and local government web resources and services.